SPACEBEE-45 (47470 NORAD) Tracking and Keplerian Element Data
This shows tracking and keplerian element data for the satellite.
Feedback or suggestion? Click here.
Element | Value |
Catalog | 47470 |
Name | SPACEBEE-45 |
Epoch Orbit | 1168 |
Epoch Day | 99.92483861 |
Epoch Year | 2021 |
RAAN | 162.2253 |
Inclination | 97.4949 |
Eccentricity | 0.0006596 |
Argument of Perigee | 0.7121 |
Mean Anonmoly | 359.4118 |
Mean Motion | 15.11978381 |
Decay Rate | 2.713E-05 |
L1 | 1 47470U 21006BK 21099.92483861 .00002713 00000-0 16183-3 0 9998 |
L2 | 2 47470 97.4949 162.2253 0006596 0.7121 359.4118 15.11978381 11685 |
Live tracking and technical data element details for SPACEBEE-45 (NORAD 47470). SPACEBEE-45 can be tracked NOW for your location showing map with azimuth and elevation plus other details from your city location.
Track the satellite on the map from your city or location and see movement details for azimuth, elevation, latitude, longitude, range, height, and movement on the map or in text.
IsCatalogInMostPopularTable: catalog: 47470, numindb: 14
Update: records affected: 1
GetName: 47470 SPACEBEE-45
Hit Count: updated at: Sat, 10 Apr 2021 18:45:29 GMT